Regional Weather Roundup
Issued by NWS Green Bay, WI

Home | Current Version | Previous Version | Text Only | Print | Product List | Glossary On
Versions: 1 2 3 4 5 6 7 8 9 10 11 12 13 14 15 16 17 18 19 20 21 22 23 24 25 26 27 28 29 30 31 32 33 34 35 36 37 38 39 40 41 42 43 44 45 46 47 48 49 50
000
ASUS43 KGRB 032211
RWRGRB

NORTH-CENTRAL AND NORTHEAST WISCONSIN REGIONAL WEATHER ROUNDUP
NATIONAL WEATHER SERVICE GREEN BAY WI
500 PM CDT FRI JUL 03 2015

WIZ005-009-010>012-018-019-032300-
NORTH CENTRAL WISCONSIN

CITY           SKY/WX    TMP DP  RH WIND       PRES   REMARKS
IRONWOOD       SUNNY     75  63  64 W10       29.84S
MANITOWISH WTR PTSUNNY   72  61  68 W6        29.89F
ARBOR VITAE    MOSUNNY   75  61  61 W7        29.90F
EAGLE RIVER    SUNNY     73  56  54 W12       29.90S
LAND O LAKES   SUNNY     74  58  57 SW7       29.90S
RHINELANDER    PTSUNNY   74  54  49 W10       29.92S
PHILLIPS       CLOUDY    74  60  61 W5        29.90S
ANTIGO         CLOUDY    71  57  61 W10       29.92F
TOMAHAWK       PTSUNNY   73  56  54 W6        29.91F
MERRILL        MOSUNNY   74  56  53 W8        29.92F
$$

WIZ013-073-032300-
NORTHEAST WISCONSIN

CITY           SKY/WX    TMP DP  RH WIND       PRES   REMARKS
IRON MOUNTAIN  PTSUNNY   74  57  55 SW7       29.86S
MARINETTE      PTSUNNY   73  52  46 W8        29.87F
OCONTO         PTSUNNY   76  54  46 SW10      29.89S
$$

WIZ017-030-035>037-045-032300-
CENTRAL WISCONSIN

CITY           SKY/WX    TMP DP  RH WIND       PRES   REMARKS
MEDFORD        MOSUNNY   73  56  55 SW8       29.92F
WAUSAU         PTSUNNY   75  55  49 W8        29.90F
MOSINEE        MOSUNNY   73  57  56 W12       29.93F
MARSHFIELD     MOSUNNY   76  56  49 W10       29.92F
WISC RAPIDS    SUNNY     77  53  43 W9        29.93F
STEVENS POINT  SUNNY     74  55  51 W8        29.93S
WAUPACA        MOSUNNY   78  53  41 SW7       29.91F
SHAWANO        MOSUNNY   78  51  38 SW12      29.91S
CLINTONVILLE   MOSUNNY   77  50  38 SW9G16    29.90F
$$

WIZ038-039-048-051-032300-
FOX VALLEY

CITY           SKY/WX    TMP DP  RH WIND       PRES   REMARKS
NWS GREEN BAY  PTSUNNY   76  56  49 SW8       29.91F
APPLETON       PTSUNNY   73  50  43 W8        29.93F
OSHKOSH        MOSUNNY   75  53  46 W5        29.92F
FOND DU LAC    MOSUNNY   75  52  44 SW7       29.93F
$$

WIZ022-050-052-032300-
EAST CENTRAL WISCONSIN

CITY           SKY/WX    TMP DP  RH WIND       PRES   REMARKS
STURGEON BAY   PTSUNNY   73  54  49 SW9       29.92F
MANITOWOC      MOSUNNY   71  48  43 MISG      29.92F
SHEBOYGAN      MOSUNNY   71  48  43 S9        29.93F
$$

LMZ563-521-522-541>543-032300-
LAKESHORE

STATION/POSITION TIME  TEMP    WIND        PRES    VSBY  WAVE
                       AIR SEA DIR/SP/G                  HT/PER
                 (UTC) (F)     (DEG/KT/KT) (MB)    (MI)  (FT/S)
SHEBOYGAN LKSHOR 2200   62     180/ 13/ 14 1013.7F
KEWAUNEE LKSHORE 2100   63     190/ 12/ 15 1012.7F
ALGOMA MARINA    2055          220/ 14/ 16   N/A
TWO RIVERS CG    2100   63                 1013.8      6   2
NORTHPORT PIER   2100   69     150/  5/  8 1011.9F
N MID LAKE BUOY  2150   50 44  200/ 12/ 14 1012.3S         2/ 3
S GREEN BAY BUOY 2200   71 69  200/ 10/ 14 1013.6F
SISTER BAY LKSHO 2114   73     230/ 13/ 17   N/A
STURGEON BAY CG  2105   62     190/ 12     1014.1      6   1
CHAMBERS ISLAND  2100   71     190/  6/ 15 1012.2F
MENOMINEE LKSHOR 2100   72     190/  9/ 12 1012.9F
$$



USA.gov is the U.S. government's official web portal to all federal, state and local government web resources and services.